Hlavní strana
METAR-TAF:

METAR-TAF

Letiště :

Tarvisio, Itálie

zeměpisná šířka: 46-30N, zeměpisná délka: 013-35E, výška: 777 m

Aktuální stav počasí

Zpráva byla vytvořena před 1 hodinou a 4 minutami, v 09:55 UTC
Východní vítr 5 kt
Teplota 27°C
Vlhkost vzduchu 48%
Tlak 1020 hPa
Viditelnost 10 km a více
Skoro jasno ve výšce 2000 ft

METAR: LIVO 200955Z 09005KT 9999 FEW020 27/15 Q1020 RMK FEW VIS MIN 9999

Čas: 12:59 (10:59 UTC)


TAF: chybějící

Stav a předpovědi počasí z více než 4 000 letišť (zprávy METAR a TAF).

Červené a žluté tečky na mapě představují dostupné meteorologické stanice.

Když kurzor umístíte na tečku, zobrazí se název stanice.

Pak kliknutím zobrazíte stav a předpověď počasí.

Chcete-li změnit mapu, kliknutím na zelené tlačítko se znaménkem +mapu přiblížíte, kliknutím na zelené tlačítko se znaménkem – mapu oddálíte a kliknutím na zelené šipky přejdete na sousední mapy.


METAR-TAF: